Tracking 34408 objects as of 13-Jun-2026
HD Live streaming from Space Station
objects crossing your sky now

PORCUPINE 1

Track PORCUPINE 1 now!
10-day predictions
PORCUPINE 1 is classified as:


NORAD ID: 1272
Int'l Code: 1965-016H
Perigee: 905.2 km
Apogee: 934.7 km
Inclination: 70.1 °
Period: 103.3 minutes
Semi major axis: 7290 km
RCS: 0.248 m2 (medium)
Launch date: March 9, 1965
Source: United States (US)
Launch site: AIR FORCE WESTERN TEST RANGE (AFWTR)
Your satellite tracking list
Your tracking list is empty




NASA's NSSDC Master Catalog

Two Line Element Set (TLE):
1 01272U 65016H   26164.26954886 -.00000006  00000-0  34535-4 0  9998
2 01272  70.0799 257.9664 0020232 132.1802 228.1026 13.94534584115836
Source of the keplerian elements: AFSPC